[Date Prev][Date Next][Thread Prev][Thread Next] - [Date Index][Thread Index][Author Index]

2 Line ISS Krps 4-7



ISS
1 25544U 98067A   04098.26250000  .00027142  00000-0  24399-3 0  5235
2 25544  51.6299 327.1844 0010403   4.6200 143.7113 15.67972029307180


----
Via the sarex mailing list at AMSAT.ORG courtesy of AMSAT-NA.
To unsubscribe, send "unsubscribe sarex" to Majordomo@amsat.org



AMSAT Top AMSAT Home